Flag for Czech Republic Weather past 2 weeks in Liberec, Czech Republic

Now
65 °F

Partly sunny.


Feels Like: 65 °F
Forecast: 48 / 66 °F
Wind: 5 mph from South

Location: Liberec

Current Time: Aug 22, 2014 at 12:57:17 PM

Latest Report: Aug 22, 2014 at 12:00 PM


Visibility: 22 mi

Pressure: 29.97 "Hg

Humidity: 48%

Dew point: 45 °F

Location of LiberecLocation

Historic Weather in Liberec — Graph

°F

Liberec temperature yesterday

Maximum temperature yesterday: 66 °F (at 4:00 PM)
Minimum temperature yesterday: 47 °F (at 7:00 AM)
Average temperature yesterday: 56 °F

Past Weeks' High & Low Weather Summary

 TemperatureHumidityPressure
High82 °F (Aug 10, 3:00 PM)99% (Aug 10, 6:00 AM)30.06 "Hg (Aug 10, 6:00 AM)
Low44 °F (Aug 20, 5:00 AM)37% (Aug 20, 4:00 PM)29.65 "Hg (Aug 13, 7:00 PM)
Average61 °F74%29.90 "Hg
* Reported Aug 7 11:00 AM — Aug 22 11:00 AM, Liberec, Weather by CustomWeather, © 2014

Note: Actual official high and low records may vary slightly from our data, if they occured in-between our weather recording intervals... More about our weather records

Advertising

Liberec weather history for previous 24 hours

 ConditionsComfort  
Time TempWeatherWind HumidityBarometerVisibility
11:00 AM
Aug 22
63 °FPartly sunny.5 mph55%29.98 "Hg25 mi
10:00 AM61 °FOvercast.3 mph61%29.99 "Hg25 mi
9:00 AM57 °FOvercast.3 mph67%30.00 "Hg25 mi
8:00 AM56 °FPartly sunny.2 mph69%30.01 "Hg22 mi
7:00 AM52 °FCool.2 mph76%30.02 "Hg12 mi
6:00 AM52 °FPassing clouds.1 mph77%30.02 "Hg1 mi
5:00 AM53 °FCool.2 mph77%30.02 "Hg12 mi
4:00 AM53 °FCool.2 mph76%30.03 "Hg12 mi
3:00 AM52 °FCool.3 mph81%30.03 "Hg12 mi
2:00 AM50 °FCool.2 mph86%30.04 "Hg12 mi
1:00 AM49 °FCool.1 mph89%30.05 "Hg12 mi
12:00 AM50 °FCool.1 mph93%30.05 "Hg12 mi
11:00 PM
Aug 21
48 °FCool.1 mph91%30.06 "Hg12 mi
10:00 PM49 °FPassing clouds.1 mph85%30.05 "Hg19 mi
9:00 PM51 °FPassing clouds.1 mph78%30.04 "Hg19 mi
8:00 PM55 °FScattered clouds.1 mph67%30.01 "Hg25 mi
7:00 PM64 °FPassing clouds.1 mph54%29.98 "Hg25 mi
6:00 PM65 °FMild.2 mph47%29.98 "Hg12 mi
5:00 PM66 °FPartly sunny.3 mph44%29.98 "Hg25 mi
4:00 PM66 °FPartly sunny.2 mph41%29.98 "Hg25 mi
3:00 PM65 °FScattered clouds.1 mph48%29.98 "Hg25 mi
2:00 PM60 °FOvercast.1 mph56%30.01 "Hg25 mi
1:00 PM63 °FOvercast.2 mph47%29.99 "Hg25 mi
12:00 PM65 °FOvercast.3 mph41%29.98 "Hg25 mi
Weather by CustomWeather, © 2014

See weather overviewHow to use our weather pages